EN

Hourly Weather Almora

Today, 28 January, Thursday

Time Temperature Precipitation Wind Pressure Humidity
00:00 +3°C° 0 mm 1 mps 627 mmHg 63%
01:00 +3°C° 0 mm 1 mps 627 mmHg 61%
02:00 +3°C° 0 mm 1 mps 627 mmHg 59%
03:00 +3°C° 0 mm 1 mps 627 mmHg 57%
04:00 +2°C° 0 mm 1 mps 626 mmHg 55%
05:00 +1°C° 0 mm 0 mps 626 mmHg 53%
06:00 +3°C° 0 mm 0 mps 627 mmHg 47%
07:00 +5°C° 0 mm 0 mps 628 mmHg 41%
08:00 +6°C° 0 mm 0 mps 629 mmHg 35%
09:00 +11°C° 0 mm 1 mps 630 mmHg 28%
10:00 +14°C° 0 mm 1 mps 631 mmHg 22%
11:00 +19°C° 0 mm 1 mps 632 mmHg 15%
12:00 +19°C° 0 mm 1 mps 631 mmHg 16%
13:00 +18°C° 0 mm 2 mps 631 mmHg 16%
14:00 +18°C° 0 mm 3 mps 630 mmHg 17%
15:00 +15°C° 0 mm 2 mps 629 mmHg 24%
16:00 +13°C° 0 mm 2 mps 628 mmHg 32%
17:00 +9°C° 0 mm 2 mps 628 mmHg 40%
18:00 +8°C° 0 mm 1 mps 628 mmHg 46%
19:00 +6°C° 0 mm 1 mps 627 mmHg 53%
20:00 +3°C° 0 mm 0 mps 627 mmHg 59%
21:00 +2°C° 0 mm 0 mps 627 mmHg 59%
22:00 +2°C° 0 mm 0 mps 628 mmHg 60%
23:00 +1°C° 0 mm 0 mps 628 mmHg 60%

Tomorrow, 29 January, Friday

Time Temperature Precipitation Wind Pressure Humidity
00:00 +1°C° 0 mm 0 mps 627 mmHg 60%
01:00 +1°C° 0 mm 0 mps 627 mmHg 60%
02:00 0°C° 0 mm 0 mps 626 mmHg 59%
03:00 0°C° 0 mm 0 mps 626 mmHg 58%
04:00 0°C° 0 mm 0 mps 626 mmHg 57%
05:00 0°C° 0 mm 0 mps 626 mmHg 56%
06:00 +2°C° 0 mm 0 mps 627 mmHg 49%
07:00 +3°C° 0 mm 0 mps 628 mmHg 43%
08:00 +5°C° 0 mm 0 mps 629 mmHg 36%
09:00 +10°C° 0 mm 1 mps 630 mmHg 29%
10:00 +13°C° 0 mm 1 mps 631 mmHg 23%
11:00 +16°C° 0 mm 1 mps 631 mmHg 16%
12:00 +18°C° 0 mm 1 mps 631 mmHg 16%
13:00 +17°C° 0 mm 2 mps 630 mmHg 15%
14:00 +17°C° 0 mm 3 mps 629 mmHg 15%
15:00 +14°C° 0 mm 2 mps 629 mmHg 21%
16:00 +12°C° 0 mm 2 mps 628 mmHg 27%
17:00 +9°C° 0 mm 1 mps 627 mmHg 33%
18:00 +7°C° 0 mm 1 mps 627 mmHg 37%
19:00 +5°C° 0 mm 1 mps 627 mmHg 40%
20:00 +4°C° 0 mm 1 mps 627 mmHg 43%
21:00 +3°C° 0 mm 1 mps 627 mmHg 43%
22:00 +3°C° 0 mm 1 mps 627 mmHg 44%
23:00 +2°C° 0 mm 1 mps 627 mmHg 44%

Day after tomorrow, 30 January, Saturday

Time Temperature Precipitation Wind Pressure Humidity
00:00 +2°C° 0 mm 1 mps 626 mmHg 43%
01:00 +2°C° 0 mm 1 mps 626 mmHg 43%
02:00 +2°C° 0 mm 1 mps 626 mmHg 43%
03:00 +1°C° 0 mm 1 mps 626 mmHg 42%
04:00 +1°C° 0 mm 1 mps 625 mmHg 42%
05:00 +1°C° 0 mm 1 mps 625 mmHg 41%
06:00 +3°C° 0 mm 1 mps 626 mmHg 37%
07:00 +4°C° 0 mm 1 mps 627 mmHg 33%
08:00 +6°C° 0 mm 1 mps 628 mmHg 28%
09:00 +10°C° 0 mm 1 mps 629 mmHg 24%
10:00 +13°C° 0 mm 0 mps 629 mmHg 19%
11:00 +17°C° 0 mm 0 mps 630 mmHg 15%
12:00 +19°C° 0 mm 1 mps 630 mmHg 14%
13:00 +19°C° 0 mm 1 mps 629 mmHg 14%
14:00 +19°C° 0 mm 1 mps 629 mmHg 13%
15:00 +15°C° 0 mm 1 mps 628 mmHg 20%
16:00 +13°C° 0 mm 2 mps 627 mmHg 28%
17:00 +9°C° 0 mm 2 mps 626 mmHg 35%
18:00 +8°C° 0 mm 1 mps 626 mmHg 39%
19:00 +6°C° 0 mm 1 mps 626 mmHg 44%
20:00 +4°C° 0 mm 1 mps 626 mmHg 49%
21:00 +4°C° 0 mm 1 mps 626 mmHg 49%
22:00 +3°C° 0 mm 1 mps 626 mmHg 50%
23:00 +3°C° 0 mm 1 mps 626 mmHg 51%

31 January, Sunday

Time Temperature Precipitation Wind Pressure Humidity
00:00 +3°C° 0 mm 1 mps 626 mmHg 51%
01:00 +2°C° 0 mm 1 mps 625 mmHg 51%
02:00 +2°C° 0 mm 1 mps 625 mmHg 51%
03:00 +2°C° 0 mm 1 mps 625 mmHg 50%
04:00 +2°C° 0 mm 1 mps 624 mmHg 50%
05:00 +1°C° 0 mm 1 mps 624 mmHg 49%
06:00 +2°C° 0 mm 0 mps 625 mmHg 44%
07:00 +4°C° 0 mm 0 mps 626 mmHg 38%
08:00 +6°C° 0 mm 0 mps 628 mmHg 33%
09:00 +10°C° 0 mm 0 mps 629 mmHg 28%
10:00 +14°C° 0 mm 1 mps 630 mmHg 23%
11:00 +19°C° 0 mm 1 mps 631 mmHg 18%
12:00 +19°C° 0 mm 1 mps 631 mmHg 18%
13:00 +19°C° 0 mm 1 mps 631 mmHg 18%
14:00 +18°C° 0 mm 2 mps 630 mmHg 18%
15:00 +16°C° 0 mm 2 mps 629 mmHg 24%
16:00 +13°C° 0 mm 2 mps 629 mmHg 31%
17:00 +10°C° 0 mm 2 mps 628 mmHg 38%
18:00 +9°C° 0 mm 1 mps 628 mmHg 43%
19:00 +7°C° 0 mm 1 mps 628 mmHg 48%
20:00 +4°C° 0 mm 0 mps 628 mmHg 53%
21:00 +3°C° 0 mm 0 mps 628 mmHg 53%
22:00 +3°C° 0 mm 0 mps 628 mmHg 54%
23:00 +3°C° 0 mm 0 mps 627 mmHg 55%

1 February, Monday

Time Temperature Precipitation Wind Pressure Humidity
00:00 +2°C° 0 mm 0 mps 627 mmHg 55%
01:00 +3°C° 0 mm 1 mps 627 mmHg 55%
02:00 +3°C° 0 mm 1 mps 627 mmHg 55%
03:00 +3°C° 0 mm 1 mps 626 mmHg 55%
04:00 +2°C° 0 mm 1 mps 626 mmHg 54%
05:00 +2°C° 0 mm 1 mps 626 mmHg 54%
06:00 +3°C° 0 mm 0 mps 627 mmHg 48%
07:00 +5°C° 0 mm 0 mps 628 mmHg 43%
08:00 +7°C° 0 mm 0 mps 629 mmHg 37%
09:00 +11°C° 0 mm 0 mps 630 mmHg 32%
10:00 +14°C° 0 mm 0 mps 631 mmHg 26%
11:00 +20°C° 0 mm 1 mps 632 mmHg 20%
12:00 +20°C° 0 mm 1 mps 632 mmHg 20%
13:00 +19°C° 0 mm 2 mps 632 mmHg 19%
14:00 +19°C° 0 mm 2 mps 631 mmHg 19%
15:00 +17°C° 0 mm 2 mps 630 mmHg 25%
16:00 +14°C° 0 mm 2 mps 629 mmHg 32%
17:00 +12°C° 0 mm 2 mps 629 mmHg 38%
18:00 +10°C° 0 mm 1 mps 628 mmHg 42%
19:00 +8°C° 0 mm 1 mps 628 mmHg 47%
20:00 +6°C° 0 mm 1 mps 628 mmHg 51%
21:00 +5°C° 0 mm 1 mps 628 mmHg 52%
22:00 +5°C° 0 mm 1 mps 628 mmHg 52%
23:00 +4°C° 0 mm 1 mps 628 mmHg 53%

2 February, Tuesday

Time Temperature Precipitation Wind Pressure Humidity
00:00 +4°C° 0 mm 1 mps 627 mmHg 54%
01:00 +4°C° 0 mm 1 mps 627 mmHg 54%
02:00 +4°C° 0 mm 1 mps 627 mmHg 54%
03:00 +4°C° 0 mm 1 mps 627 mmHg 54%
04:00 +3°C° 0 mm 1 mps 627 mmHg 54%
05:00 +3°C° 0 mm 1 mps 626 mmHg 54%
06:00 +5°C° 0 mm 1 mps 627 mmHg 48%
07:00 +7°C° 0 mm 1 mps 628 mmHg 43%
08:00 +8°C° 0 mm 0 mps 629 mmHg 38%
09:00 +13°C° 0 mm 1 mps 631 mmHg 32%
10:00 +16°C° 0 mm 1 mps 632 mmHg 25%
11:00 +21°C° 0 mm 1 mps 633 mmHg 19%
12:00 +20°C° 0 mm 2 mps 632 mmHg 19%
13:00 +20°C° 0 mm 3 mps 632 mmHg 18%
14:00 +20°C° 0 mm 4 mps 631 mmHg 17%
15:00 +18°C° 0 mm 3 mps 630 mmHg 24%
16:00 +15°C° 0 mm 2 mps 629 mmHg 31%
17:00 +13°C° 0 mm 2 mps 628 mmHg 38%
18:00 +10°C° 0 mm 1 mps 628 mmHg 45%
19:00 +8°C° 0 mm 1 mps 628 mmHg 51%
20:00 +5°C° 0 mm 0 mps 628 mmHg 58%
21:00 +5°C° 0 mm 0 mps 628 mmHg 57%
22:00 +5°C° 0 mm 0 mps 628 mmHg 57%
23:00 +5°C° 0 mm 1 mps 628 mmHg 57%
Show more